"Pseudo-MPEC" for A11ad6d

Created 2024 Sep 6 7:22:03 UT using Find_Orb

Click here for an explanation of pseudo-MPECs

 
 Astrometry: 
     A11ad6d* C2024 08 28.47053322 58 03.204-09 43 10.67   ~8SFb 18.99oVNEOCPT08
     A11ad6d  C2024 08 28.47460222 58 06.650-09 45 55.80   ~8SFb 19.31oVNEOCPT08
     A11ad6d  C2024 08 28.50199022 58 29.458-10 04 07.68   ~8SFb 17.71oVNEOCPT08
     A11ad6d  C2024 08 28.50742022 58 33.874-10 07 34.97   ~8SFb 19.29oVNEOCPT08

Station data:
(T08) ATLAS-MLO, Mauna Loa  (N19.536150 W155.576050)  US/Hawaii.  Observers
   L. Denneau, A. Heinze, H. Weiland, J. Tonry, H. Flewelling, A.
   Fitzsimmons, D. Young, B. Stalder. Measurers L. Denneau, A. Heinze, J.
   Tonry. 0.5-m f/2.0 Schmidt + CCD.

Orbital elements:  A11ad6d
   Perigee 2024 Aug 27.56298 +/- 6.92 TT = 13:30:41 (JD 2460550.06298)
Epoch 2024 Aug 28.0 TT = JDT 2460550.5                           AutoNEOCP
q283203.841 +/- 1.29e+7             (J2000 equator)
H   28.72 G 0.15                    Peri.  112.00836 +/- 2.6
                                    Node   160.41820 +/- 0.013
e 212.5852012 +/- 0.232             Incl.   66.91691 +/- 2.6
From 4 observations 2024 Aug. 28 (53.1 min); mean residual 0".70
Residuals in arcseconds: 
240828 T08  .15+  1.2-    240828 T08  .07+  .62-    
240828 T08  .18-  1.4+    240828 T08  .04-  .37+    

Ephemerides (geocentric):
Date (UTC) HH   RA             Dec           delta  r     elong  mag " sig PA
---- --------  ------------   ------------  ------ ------ -----  --- --------
2024 09 06 07  23 15 39.496   -19 16 23.77  .09782 1.1033 166.6 24.6 292'  33
2024 09 06 08  23 15 39.842   -19 16 35.05  .09825 1.1037 166.6 24.6 293'  33
2024 09 06 09  23 15 40.185   -19 16 46.17  .09867 1.1041 166.5 24.6 293'  33
2024 09 06 10  23 15 40.524   -19 16 57.13  .09910 1.1045 166.5 24.6 293'  33
2024 09 06 11  23 15 40.859   -19 17 07.94  .09953 1.1049 166.5 24.7 294'  33
2024 09 06 12  23 15 41.190   -19 17 18.60  .09995 1.1054 166.5 24.7 294'  33
2024 09 06 13  23 15 41.518   -19 17 29.11  .10038 1.1058 166.5 24.7 294'  33
2024 09 06 14  23 15 41.842   -19 17 39.48  .10080 1.1062 166.5 24.7 295'  33
2024 09 06 15  23 15 42.162   -19 17 49.70  .10123 1.1066 166.5 24.7 295'  33
2024 09 06 16  23 15 42.479   -19 17 59.77  .10165 1.1070 166.5 24.7 295'  33
2024 09 06 17  23 15 42.792   -19 18 09.70  .10208 1.1074 166.5 24.7 296'  33
2024 09 06 18  23 15 43.102   -19 18 19.49  .10251 1.1078 166.5 24.7 296'  33
2024 09 06 19  23 15 43.408   -19 18 29.14  .10293 1.1082 166.5 24.7 297'  33
2024 09 06 20  23 15 43.711   -19 18 38.65  .10336 1.1086 166.4 24.7 297'  33
2024 09 06 21  23 15 44.010   -19 18 48.02  .10379 1.1090 166.4 24.8 297'  33
2024 09 06 22  23 15 44.307   -19 18 57.26  .10421 1.1094 166.4 24.8 298'  33
2024 09 06 23  23 15 44.600   -19 19 06.36  .10464 1.1098 166.4 24.8 298'  33
2024 09 07 00  23 15 44.890   -19 19 15.33  .10507 1.1102 166.4 24.8 298'  33
2024 09 07 01  23 15 45.177   -19 19 24.17  .10549 1.1106 166.4 24.8 299'  33
2024 09 07 02  23 15 45.461   -19 19 32.87  .10592 1.1110 166.4 24.8 299'  33
2024 09 07 03  23 15 45.742   -19 19 41.45  .10635 1.1114 166.4 24.8 299'  33
2024 09 07 04  23 15 46.020   -19 19 49.90  .10677 1.1118 166.4 24.8 299'  33
2024 09 07 05  23 15 46.295   -19 19 58.22  .10720 1.1122 166.4 24.8 300'  33
2024 09 07 06  23 15 46.567   -19 20 06.42  .10763 1.1126 166.4 24.8 300'  33
2024 09 07 07  23 15 46.836   -19 20 14.49  .10805 1.1130 166.3 24.9 300'  33
2024 09 07 08  23 15 47.102   -19 20 22.44  .10848 1.1134 166.3 24.9 301'  33
2024 09 07 09  23 15 47.366   -19 20 30.27  .10891 1.1138 166.3 24.9 301'  33
2024 09 07 10  23 15 47.627   -19 20 37.98  .10934 1.1142 166.3 24.9 301'  33
2024 09 07 11  23 15 47.885   -19 20 45.57  .10976 1.1146 166.3 24.9 302'  33
2024 09 07 12  23 15 48.141   -19 20 53.03  .11019 1.1150 166.3 24.9 302'  33
2024 09 07 13  23 15 48.394   -19 21 00.39  .11062 1.1154 166.3 24.9 302'  33
2024 09 07 14  23 15 48.645   -19 21 07.62  .11105 1.1158 166.3 24.9 303'  33
2024 09 07 15  23 15 48.893   -19 21 14.74  .11148 1.1162 166.3 24.9 303'  33
2024 09 07 16  23 15 49.138   -19 21 21.74  .11190 1.1166 166.2 24.9 303'  33
2024 09 07 17  23 15 49.381   -19 21 28.64  .11233 1.1170 166.2 24.9 303'  33
2024 09 07 18  23 15 49.622   -19 21 35.42  .11276 1.1174 166.2 25.0 304'  33
2024 09 07 19  23 15 49.861   -19 21 42.08  .11319 1.1178 166.2 25.0 304'  33
2024 09 07 20  23 15 50.097   -19 21 48.64  .11362 1.1182 166.2 25.0 304'  33
2024 09 07 21  23 15 50.330   -19 21 55.09  .11405 1.1186 166.2 25.0 304'  33
2024 09 07 22  23 15 50.562   -19 22 01.43  .11447 1.1190 166.2 25.0 305'  33
2024 09 07 23  23 15 50.791   -19 22 07.66  .11490 1.1194 166.2 25.0 305'  33
2024 09 08 00  23 15 51.018   -19 22 13.79  .11533 1.1198 166.2 25.0 305'  33
2024 09 08 01  23 15 51.243   -19 22 19.81  .11576 1.1202 166.1 25.0 306'  33
2024 09 08 02  23 15 51.466   -19 22 25.73  .11619 1.1207 166.1 25.0 306'  33
2024 09 08 03  23 15 51.687   -19 22 31.54  .11662 1.1211 166.1 25.0 306'  33
2024 09 08 04  23 15 51.906   -19 22 37.25  .11705 1.1215 166.1 25.0 306'  33
2024 09 08 05  23 15 52.123   -19 22 42.86  .11748 1.1219 166.1 25.1 307'  33
2024 09 08 06  23 15 52.337   -19 22 48.37  .11791 1.1223 166.1 25.1 307'  33